Snowfall_Accumulation
nan nan nan nan nan nan nan nan nan nan nan nan nan nan nan nan nan 0.0 0.0 0.0 0.0 0.0 0.0 0.0 0.0 0.0 0.0 0.0 0.2 0.0 0.2 0.2 0.5 0.9 1.5 0.9 3.6 0.6 0.4 0.0 0.0 0.2 1.5 4.1 1.5 2.6 3.1 0.0 0.0 0.2 0.2 0.0 0.0 0.0
nan nan nan nan nan nan nan nan nan nan nan nan nan nan nan nan nan nan 0.0 0.0 0.0 0.0 0.0 0.0 0.0 0.0 0.0 0.0 0.0 0.0 0.0 0.0 0.0 0.4 1.4 1.0 3.9 4.5 0.2 2.0 0.0 0.7 0.3 0.6 0.1 0.7 0.0 0.0 0.0 0.0 0.0 0.0 0.0 0.0
nan nan nan nan nan nan nan nan nan nan nan nan nan nan nan nan nan nan 0.0 0.0 0.0 0.1 0.0 0.0 0.0 0.0 0.0 0.0 0.0 0.0 0.0 0.0 0.0 0.0 0.4 0.8 1.0 0.9 4.1 0.7 0.2 0.0 0.0 0.3 0.1 0.0 0.0 0.0 0.0 0.0 0.0 0.0 0.0 0.0
nan nan nan nan nan nan nan nan nan nan nan nan nan nan nan nan nan nan 0.0 0.0 0.0 0.0 1.6 0.2 0.0 0.0 0.0 0.0 0.0 0.0 0.0 0.0 0.0 0.0 0.6 1.5 3.3 0.0 1.4 0.5 1.0 0.0 0.0 0.0 0.0 0.0 0.0 0.0 0.0 0.0 0.0 0.0 0.0 0.0
nan nan nan nan nan nan nan nan nan nan nan nan nan nan nan nan nan nan 0.0 0.0 0.0 0.0 0.7 0.3 0.0 0.0 0.0 0.0 0.0 0.0 0.0 0.0 0.0 0.5 3.9 1.6 0.3 0.6 0.5 0.4 0.5 0.0 0.0 0.5 0.6 0.0 0.0 0.0 0.0 0.0 0.0 0.0 0.0 0.0
nan nan nan nan nan nan nan nan nan nan nan nan nan nan nan nan nan 0.0 0.0 0.0 0.0 0.0 0.2 0.8 0.0 0.0 0.0 0.0 0.0 0.0 0.0 0.0 0.0 0.1 1.8 0.2 0.0 0.2 5.1 0.6 0.0 0.0 0.0 0.0 0.0 0.0 0.0 0.0 0.0 0.0 0.0 0.0 0.0 0.0
nan nan nan nan nan nan nan nan nan nan nan nan nan nan nan nan 0.0 0.0 0.0 0.0 nan 0.0 0.3 0.7 0.5 0.1 0.0 0.0 0.0 0.0 0.0 0.0 0.0 0.2 0.6 0.3 0.2 0.0 2.0 1.0 0.0 0.0 0.0 0.0 0.0 0.0 0.0 0.0 0.0 0.0 0.0 0.0 0.0 0.0
nan nan nan nan nan nan nan nan nan nan nan nan nan nan nan nan nan 0.0 0.0 nan nan 0.0 0.1 0.8 1.5 0.8 0.0 0.6 0.9 0.0 0.3 0.2 0.0 0.0 0.5 0.6 0.2 0.7 0.7 0.0 0.0 0.0 0.0 0.0 0.0 0.0 0.0 0.0 0.0 0.0 0.0 0.0 0.0 0.0
nan nan nan nan nan nan nan nan nan nan nan nan nan nan 0.0 0.0 0.1 0.0 nan nan 0.0 0.0 0.4 1.2 1.6 4.1 0.0 0.2 0.6 0.4 0.0 1.2 0.1 1.3 1.1 0.4 1.6 0.9 0.0 0.0 0.0 0.0 0.0 0.0 0.0 0.0 0.0 0.0 0.0 0.0 0.0 0.0 0.0 0.0
nan nan nan nan nan nan nan nan nan nan nan nan 0.0 0.0 0.5 0.3 nan nan 0.0 0.3 0.3 0.3 0.3 1.6 0.3 1.4 0.0 1.1 1.5 0.7 0.8 1.6 1.6 1.6 0.0 1.6 0.6 0.0 0.0 0.0 0.0 0.0 0.0 0.0 0.0 0.0 0.0 0.0 0.0 0.0 0.0 0.0 0.0 0.0
nan nan nan nan nan nan nan nan nan nan nan 0.0 0.4 0.4 0.0 nan 0.0 0.1 0.5 0.6 0.3 0.9 0.2 0.5 1.2 1.3 0.2 1.6 1.9 0.9 2.3 2.6 3.0 1.1 2.1 1.6 1.4 0.0 0.0 0.0 0.0 0.0 0.0 0.0 0.0 0.0 0.0 0.0 0.0 0.0 0.0 0.0 0.1 0.1
nan nan nan nan nan nan nan nan nan 0.0 0.0 0.0 0.1 0.0 0.0 0.0 0.6 1.3 3.2 1.8 0.6 0.8 1.8 1.9 1.0 0.4 0.6 0.0 0.6 1.7 2.1 2.3 2.4 0.4 4.9 2.7 0.5 0.0 0.0 0.0 0.0 0.0 0.0 0.0 0.0 0.0 0.0 0.0 0.0 0.1 0.1 0.2 0.4 0.8
nan nan nan nan nan nan nan nan nan nan nan 0.0 0.3 0.3 0.1 2.8 19.7 6.6 5.0 3.5 7.1 2.4 4.0 3.7 8.0 0.9 0.8 0.2 1.8 1.6 5.2 4.6 0.7 6.4 1.1 1.0 0.0 0.0 0.0 0.0 0.0 0.0 0.0 0.0 0.0 0.0 0.0 0.0 0.0 1.1 0.3 1.6 1.5 0.4
nan nan nan nan nan nan nan nan nan 0.0 0.0 0.5 2.6 22.6 6.1 9.6 3.9 4.2 4.3 4.7 3.9 4.7 2.6 1.5 2.7 1.8 3.1 3.1 3.2 7.6 3.8 1.8 8.5 5.9 3.0 0.6 0.0 0.0 0.0 0.0 0.0 0.0 0.2 0.1 0.0 0.2 0.7 1.4 2.0 2.1 2.8 2.9 2.4 2.0
nan nan nan nan nan nan nan nan nan 0.0 0.1 0.8 1.6 18.0 6.8 3.9 4.4 4.8 5.0 4.3 2.7 1.1 1.5 1.8 1.7 0.4 4.7 7.8 4.7 4.5 9.3 8.4 3.9 3.9 3.1 0.3 0.0 0.0 0.0 0.0 0.0 0.2 1.0 0.4 0.1 0.3 1.4 0.9 2.0 0.7 1.7 1.1 0.9 2.2
nan nan 0.0 nan nan nan nan nan 0.0 0.0 0.7 1.3 2.1 5.4 5.6 8.2 14.8 11.5 8.8 6.6 0.7 1.2 1.2 1.2 3.4 6.6 7.5 5.1 4.9 5.3 3.5 3.3 5.9 4.5 1.8 0.4 0.1 0.1 0.0 0.0 0.0 0.1 0.1 0.1 0.1 0.2 0.5 1.7 1.7 0.5 0.8 1.3 3.6 3.7
nan 0.1 nan nan nan nan nan 0.0 0.4 0.1 2.4 2.0 12.3 11.6 7.7 7.4 11.3 9.0 5.2 1.8 0.1 2.8 11.4 3.6 5.2 3.5 2.1 5.1 3.3 2.7 9.5 4.8 4.8 2.6 0.6 0.1 0.1 0.1 0.1 0.0 0.4 0.1 0.1 0.1 0.1 0.1 0.3 1.0 1.0 0.6 0.6 0.1 0.2 0.7
0.1 0.0 nan nan nan nan 0.0 0.1 0.9 1.0 1.5 2.7 9.5 12.1 5.1 5.2 9.4 5.9 3.5 0.9 1.2 0.9 1.4 2.0 0.9 4.4 11.0 5.1 6.6 4.5 4.4 4.7 1.9 0.9 0.4 0.2 0.0 0.0 0.0 0.0 0.1 0.1 0.1 0.3 0.3 0.2 0.5 0.7 0.3 0.6 0.1 0.1 0.3 0.3
0.0 0.0 nan nan 0.0 0.3 0.7 0.5 0.3 2.0 4.4 4.3 3.8 2.5 3.4 6.2 2.3 1.8 3.0 1.2 0.6 0.5 1.4 2.2 4.6 4.1 6.3 3.9 8.4 8.2 5.5 2.6 1.2 0.5 0.3 0.1 0.1 0.1 0.1 0.2 0.4 0.5 0.4 0.2 0.1 0.5 0.4 0.1 0.4 0.5 0.7 0.8 2.2 1.4
nan nan nan nan nan 0.6 0.3 2.0 0.3 0.4 2.7 2.7 2.6 3.1 2.5 3.8 3.1 7.8 5.5 1.5 0.9 1.6 2.5 3.2 5.7 3.5 3.0 2.6 1.9 2.0 1.2 0.7 0.8 1.6 1.6 1.3 0.8 0.5 0.7 0.5 0.7 0.4 0.5 0.2 0.8 0.2 0.9 0.9 0.8 0.9 1.4 1.2 4.0 5.6
nan nan nan 0.0 0.5 0.0 0.7 1.1 0.5 0.7 0.7 1.2 2.6 3.0 3.1 4.3 4.6 6.9 5.6 1.2 4.3 2.8 2.2 2.2 4.6 6.2 1.2 1.6 1.5 1.4 1.3 1.3 1.8 3.2 1.8 1.0 1.0 0.8 1.0 1.3 1.2 1.1 1.3 1.6 4.4 2.8 2.1 2.5 1.3 1.4 13.3 15.8 11.1 8.8
0.0 nan 0.8 0.6 1.3 1.2 2.5 0.5 0.8 0.7 1.5 1.6 2.2 1.7 5.1 13.8 12.8 6.7 2.0 5.2 2.5 2.6 1.7 2.0 1.6 1.1 1.1 0.7 0.8 0.3 0.6 0.9 1.5 2.1 1.0 1.1 2.5 2.2 2.5 2.1 2.0 3.9 4.0 5.1 3.9 8.1 4.4 1.9 4.0 4.8 10.4 15.8 6.4 7.3
nan 0.5 1.6 1.2 5.1 8.5 12.0 0.6 3.4 0.8 5.5 4.1 3.2 3.1 6.6 7.1 4.4 1.1 6.7 1.9 3.5 1.5 1.4 0.8 0.3 0.3 1.0 0.8 1.2 0.7 1.0 0.8 2.2 3.4 5.2 4.2 3.4 10.6 4.4 3.8 3.9 7.7 6.0 2.4 1.7 4.2 5.8 3.2 5.5 15.0 10.6 10.7 15.9 22.2
nan 2.3 8.4 8.3 7.7 18.4 5.7 10.3 1.4 2.4 2.9 5.1 5.7 5.1 2.4 4.2 1.9 5.8 6.3 2.2 2.3 1.5 1.4 0.9 1.4 1.6 1.7 1.5 2.4 2.4 2.5 2.4 2.3 4.8 4.9 2.9 3.1 2.7 2.4 2.8 3.3 3.5 4.0 1.9 3.8 6.0 5.6 15.2 7.5 7.7 17.3 30.4 37.0 31.5
14.9 23.5 14.2 31.0 7.7 16.1 8.0 7.6 6.5 4.4 7.2 7.5 5.8 6.5 14.2 4.2 8.4 7.8 3.4 5.3 4.4 8.1 4.3 3.8 2.3 2.6 6.2 7.2 4.5 3.9 2.2 1.9 2.6 2.3 7.0 2.2 3.8 3.5 3.0 1.7 3.4 2.3 3.3 12.5 15.6 20.0 19.5 18.9 20.3 19.5 12.9 34.4 17.5 15.6
35.2 19.0 22.7 10.2 17.8 9.9 6.7 10.9 11.2 11.3 8.1 8.4 9.0 5.0 8.5 10.0 8.0 9.2 3.1 11.4 9.8 18.0 22.2 21.0 13.3 4.8 2.8 2.1 2.7 2.2 1.7 1.2 1.6 5.2 2.1 1.5 2.1 11.5 10.7 7.8 6.0 6.4 4.8 10.5 17.3 26.2 19.5 17.6 24.1 12.9 21.3 13.9 9.7 28.6
31.0 23.5 3.9 1.9 2.9 2.9 12.4 13.3 5.1 9.4 9.1 10.5 7.8 11.3 12.2 17.5 11.4 4.5 3.5 4.3 4.7 10.7 4.9 5.4 5.5 4.3 3.1 2.5 2.1 2.3 2.2 2.6 3.0 2.1 3.0 2.2 2.3 2.7 7.3 15.5 8.7 5.4 6.9 9.9 15.5 30.6 30.6 28.6 30.7 20.6 25.1 26.5 26.6 32.9
8.1 4.5 15.1 11.3 8.6 5.3 10.4 8.2 9.0 10.1 7.1 3.5 6.2 11.9 13.4 13.1 8.4 5.5 4.8 5.4 7.7 5.3 5.4 5.6 4.2 3.2 3.7 3.8 5.1 6.4 7.7 6.7 8.3 6.3 5.2 4.9 4.6 9.0 9.0 9.6 8.4 7.5 11.2 21.6 26.3 28.3 22.7 33.3 35.8 35.8 33.1 31.5 33.6 32.1
7.8 7.4 5.5 14.1 6.8 7.4 9.4 11.5 10.0 4.5 1.3 5.4 18.3 8.9 7.5 4.8 10.7 13.3 7.1 5.1 7.0 7.7 15.7 14.4 13.9 20.8 14.1 9.1 11.5 17.2 12.8 15.4 12.3 13.8 19.1 19.1 18.2 16.9 12.1 14.9 16.2 21.0 20.2 33.3 7.8 12.3 17.9 25.5 30.9 34.6 32.0 39.4 37.0 41.2
6.6 8.8 7.2 8.7 10.8 7.8 15.2 11.1 14.1 10.6 1.8 5.2 4.1 2.6 3.2 9.0 11.0 7.9 9.8 11.9 14.6 29.8 42.6 37.0 33.9 37.9 42.2 30.6 25.9 18.4 26.8 31.6 23.3 25.4 32.8 24.6 21.1 20.3 23.8 29.6 29.3 28.6 28.3 48.4 29.8 13.1 9.4 27.6 21.3 40.5 36.1 33.7 34.3 39.0
5.4 13.2 9.8 7.0 9.7 21.6 22.3 24.1 22.2 11.6 12.7 25.1 22.5 24.8 20.2 16.1 16.0 8.3 9.6 14.5 19.0 47.6 50.9 53.1 51.3 53.5 43.3 28.3 44.9 40.0 27.4 41.7 18.4 13.9 13.8 21.0 23.6 33.0 34.9 30.0 32.5 43.5 37.5 34.8 42.0 33.2 26.4 34.7 41.8 36.1 26.7 24.3 24.7 25.9
16.4 24.6 23.4 11.4 15.8 31.1 14.9 37.0 29.2 27.5 29.7 33.9 34.5 37.0 42.3 35.2 21.0 16.0 18.0 29.1 35.4 41.5 9.4 35.5 50.4 24.6 23.8 22.0 27.6 28.5 10.4 17.8 18.1 18.0 19.1 24.9 30.6 34.6 22.9 19.3 41.0 41.9 34.6 36.9 31.2 32.0 26.2 32.7 31.1 32.3 29.8 26.3 23.8 21.4
34.5 23.3 16.0 16.8 27.2 17.0 23.9 26.2 7.2 25.4 24.0 28.0 35.0 29.8 35.7 28.9 14.4 22.8 11.2 25.9 31.5 34.4 28.9 39.1 41.1 48.0 26.0 21.5 20.4 21.9 12.2 19.6 21.3 10.4 9.1 9.1 9.1 11.6 27.7 36.9 44.5 34.6 22.1 29.7 33.0 29.8 24.2 19.5 20.5 23.0 23.5 26.4 24.0 22.0
Water_Equivalent
nan nan nan nan nan nan nan nan nan nan nan nan nan nan nan nan nan 0.00 0.00 0.00 0.00 0.00 0.00 0.00 0.00 0.00 0.00 0.00 0.07 0.00 0.06 0.06 0.12 0.21 0.35 0.19 0.79 0.12 0.08 0.00 0.01 0.04 0.29 0.80 0.32 0.50 0.56 0.00 0.00 0.03 0.05 0.00 0.00 0.00
nan nan nan nan nan nan nan nan nan nan nan nan nan nan nan nan nan nan 0.00 0.00 0.00 0.00 0.00 0.00 0.00 0.00 0.00 0.00 0.00 0.00 0.00 0.00 0.01 0.10 0.35 0.27 0.89 1.17 0.04 0.41 0.00 0.15 0.06 0.12 0.02 0.14 0.00 0.00 0.00 0.00 0.00 0.00 0.00 0.00
nan nan nan nan nan nan nan nan nan nan nan nan nan nan nan nan nan nan 0.00 0.00 0.00 0.03 0.00 0.00 0.00 0.00 0.00 0.00 0.00 0.00 0.01 0.00 0.00 0.00 0.11 0.21 0.22 0.20 0.85 0.15 0.04 0.00 0.00 0.08 0.02 0.00 0.00 0.00 0.00 0.00 0.00 0.00 0.00 0.00
nan nan nan nan nan nan nan nan nan nan nan nan nan nan nan nan nan nan 0.00 0.00 0.00 0.00 0.44 0.07 0.00 0.00 0.00 0.00 0.00 0.00 0.00 0.00 0.00 0.00 0.17 0.38 0.77 0.00 0.30 0.13 0.22 0.01 0.00 0.00 0.00 0.00 0.00 0.00 0.00 0.00 0.00 0.00 0.00 0.00
nan nan nan nan nan nan nan nan nan nan nan nan nan nan nan nan nan nan 0.00 0.00 0.00 0.00 0.20 0.09 0.00 0.00 0.00 0.00 0.00 0.00 0.00 0.00 0.00 0.12 1.02 0.41 0.08 0.16 0.13 0.09 0.12 0.00 0.00 0.12 0.15 0.00 0.00 0.00 0.00 0.00 0.00 0.00 0.00 0.00
nan nan nan nan nan nan nan nan nan nan nan nan nan nan nan nan nan 0.00 0.00 0.00 0.00 0.00 0.06 0.23 0.00 0.00 0.00 0.00 0.00 0.00 0.00 0.00 0.00 0.02 0.46 0.06 0.00 0.05 1.38 0.16 0.00 0.00 0.00 0.00 0.00 0.00 0.00 0.00 0.00 0.00 0.00 0.00 0.00 0.00
nan nan nan nan nan nan nan nan nan nan nan nan nan nan nan nan 0.00 0.00 0.00 0.00 nan 0.00 0.07 0.20 0.13 0.02 0.00 0.00 0.00 0.00 0.00 0.00 0.00 0.04 0.15 0.09 0.06 0.00 0.50 0.22 0.00 0.00 0.00 0.00 0.00 0.00 0.00 0.00 0.00 0.00 0.00 0.00 0.00 0.00
nan nan nan nan nan nan nan nan nan nan nan nan nan nan nan nan nan 0.00 0.00 nan nan 0.00 0.04 0.21 0.40 0.22 0.00 0.16 0.23 0.00 0.07 0.05 0.01 0.00 0.14 0.17 0.06 0.17 0.19 0.00 0.00 0.00 0.00 0.00 0.00 0.00 0.00 0.00 0.00 0.00 0.00 0.00 0.00 0.00
nan nan nan nan nan nan nan nan nan nan nan nan nan nan 0.00 0.00 0.03 0.00 nan nan 0.00 0.00 0.11 0.31 0.43 1.07 0.00 0.05 0.16 0.10 0.01 0.33 0.02 0.35 0.30 0.10 0.43 0.23 0.00 0.00 0.00 0.00 0.00 0.00 0.00 0.00 0.00 0.00 0.00 0.00 0.00 0.00 0.00 0.00
nan nan nan nan nan nan nan nan nan nan nan nan 0.00 0.00 0.14 0.08 nan nan 0.00 0.08 0.08 0.09 0.07 0.43 0.08 0.37 0.01 0.31 0.41 0.20 0.21 0.44 0.42 0.44 0.01 0.44 0.17 0.00 0.00 0.00 0.00 0.00 0.00 0.00 0.00 0.00 0.00 0.00 0.00 0.00 0.00 0.00 0.00 0.00
nan nan nan nan nan nan nan nan nan nan nan 0.01 0.10 0.11 0.00 nan 0.00 0.04 0.14 0.15 0.07 0.23 0.06 0.14 0.33 0.36 0.04 0.45 0.51 0.25 0.62 0.71 0.72 0.23 0.54 0.38 0.31 0.00 0.00 0.00 0.00 0.00 0.00 0.00 0.00 0.00 0.00 0.00 0.00 0.00 0.00 0.01 0.01 0.02
nan nan nan nan nan nan nan nan nan 0.00 0.00 0.00 0.02 0.00 0.00 0.00 0.15 0.40 0.87 0.50 0.17 0.20 0.48 0.52 0.26 0.11 0.17 0.00 0.17 0.48 0.56 0.59 0.49 0.11 1.26 0.54 0.10 0.00 0.00 0.00 0.00 0.00 0.00 0.00 0.00 0.00 0.00 0.00 0.00 0.01 0.02 0.03 0.08 0.15
nan nan nan nan nan nan nan nan nan nan nan 0.00 0.07 0.08 0.05 0.83 4.43 1.65 1.17 0.92 1.92 0.66 1.11 1.03 2.22 0.24 0.22 0.06 0.50 0.43 1.38 0.97 0.18 1.40 0.23 0.19 0.00 0.00 0.00 0.00 0.00 0.00 0.00 0.00 0.00 0.00 0.00 0.00 0.00 0.19 0.05 0.29 0.27 0.07
nan nan nan nan nan nan nan nan nan 0.00 0.00 0.14 0.75 4.70 1.62 2.19 0.85 0.88 0.89 1.21 1.04 1.30 0.71 0.40 0.72 0.49 0.82 0.82 0.85 1.80 0.87 0.41 1.62 1.09 0.55 0.12 0.00 0.00 0.00 0.00 0.00 0.00 0.04 0.03 0.00 0.04 0.13 0.25 0.34 0.36 0.48 0.49 0.39 0.33
nan nan nan nan nan nan nan nan nan 0.00 0.03 0.20 0.39 3.04 1.33 0.85 1.07 1.23 1.38 1.17 0.73 0.31 0.40 0.49 0.46 0.10 1.07 1.78 1.02 0.96 1.74 1.55 0.71 0.73 0.61 0.08 0.01 0.00 0.00 0.00 0.00 0.03 0.19 0.08 0.01 0.05 0.26 0.15 0.34 0.12 0.29 0.21 0.17 0.38
nan nan 0.00 nan nan nan nan nan 0.00 0.00 0.17 0.29 0.43 1.07 1.28 1.79 3.15 3.12 2.45 1.82 0.19 0.32 0.33 0.32 0.73 1.42 1.44 1.09 0.95 1.02 0.63 0.57 1.09 0.98 0.43 0.09 0.03 0.02 0.01 0.01 0.01 0.01 0.02 0.02 0.02 0.03 0.10 0.30 0.29 0.09 0.15 0.24 0.62 0.66
nan 0.04 nan nan nan nan nan 0.00 0.10 0.03 0.53 0.41 2.32 3.03 1.82 1.82 2.56 2.28 1.40 0.47 0.01 0.76 2.55 0.77 0.99 0.62 0.40 0.94 0.56 0.52 1.67 0.97 1.17 0.64 0.15 0.03 0.03 0.02 0.01 0.01 0.08 0.02 0.01 0.02 0.02 0.02 0.06 0.17 0.17 0.11 0.10 0.02 0.04 0.13
0.02 0.00 nan nan nan nan 0.00 0.02 0.22 0.24 0.26 0.50 1.71 2.31 1.10 1.14 2.35 1.55 0.95 0.23 0.32 0.22 0.30 0.35 0.20 0.75 1.97 0.84 1.12 0.82 0.79 1.02 0.44 0.20 0.09 0.05 0.01 0.01 0.00 0.01 0.02 0.02 0.02 0.05 0.05 0.04 0.09 0.13 0.06 0.11 0.02 0.02 0.05 0.06
0.00 0.00 nan nan 0.00 0.08 0.17 0.13 0.07 0.36 0.76 0.81 0.72 0.53 0.75 1.40 0.55 0.42 0.80 0.34 0.16 0.12 0.29 0.43 0.87 0.67 1.03 0.62 1.55 1.78 1.27 0.53 0.25 0.09 0.06 0.01 0.02 0.02 0.02 0.03 0.06 0.08 0.06 0.03 0.01 0.09 0.07 0.02 0.06 0.10 0.12 0.14 0.38 0.26
nan nan nan nan nan 0.13 0.06 0.41 0.07 0.10 0.49 0.47 0.54 0.62 0.49 0.75 0.68 1.85 1.44 0.41 0.21 0.34 0.50 0.56 0.92 0.53 0.46 0.42 0.31 0.34 0.23 0.16 0.17 0.29 0.29 0.22 0.16 0.08 0.12 0.09 0.13 0.06 0.08 0.03 0.13 0.05 0.16 0.15 0.13 0.17 0.24 0.20 0.63 0.84
nan nan nan 0.00 0.12 0.00 0.16 0.21 0.10 0.16 0.15 0.22 0.51 0.58 0.57 0.86 0.91 1.37 1.19 0.25 0.89 0.51 0.38 0.35 0.78 1.19 0.21 0.27 0.25 0.24 0.21 0.21 0.30 0.63 0.32 0.16 0.16 0.13 0.15 0.21 0.20 0.18 0.21 0.25 0.72 0.43 0.35 0.39 0.21 0.23 2.16 2.60 1.78 1.44
0.00 nan 0.18 0.14 0.28 0.27 0.50 0.12 0.17 0.15 0.29 0.32 0.42 0.34 0.94 2.53 2.28 1.26 0.41 0.95 0.42 0.41 0.29 0.34 0.26 0.20 0.21 0.12 0.13 0.05 0.09 0.14 0.21 0.31 0.22 0.19 0.36 0.32 0.35 0.30 0.31 0.56 0.55 0.74 0.59 1.20 0.71 0.30 0.60 0.71 1.60 2.62 1.04 1.17
nan 0.13 0.36 0.27 0.94 1.61 2.33 0.13 0.65 0.15 0.96 0.75 0.62 0.54 1.14 1.26 0.78 0.22 1.11 0.34 0.60 0.25 0.23 0.15 0.06 0.06 0.17 0.13 0.19 0.12 0.16 0.13 0.31 0.43 0.68 0.52 0.41 1.49 0.56 0.49 0.53 1.10 0.84 0.34 0.26 0.62 0.86 0.83 0.91 2.33 1.65 1.70 2.55 3.49
nan 0.53 1.49 1.50 1.44 2.88 1.18 1.76 0.26 0.42 0.55 0.90 0.96 0.85 0.39 0.73 0.34 0.99 0.97 0.34 0.33 0.27 0.25 0.13 0.24 0.27 0.28 0.21 0.32 0.32 0.35 0.34 0.31 0.66 0.69 0.38 0.40 0.33 0.32 0.38 0.47 0.50 0.58 0.28 0.56 0.89 0.87 2.37 2.05 1.15 2.61 4.69 5.62 4.59
2.08 3.17 2.45 4.12 1.41 2.62 1.27 1.21 1.09 0.76 1.11 1.23 0.94 1.08 2.10 0.73 1.34 1.21 0.50 0.72 0.61 1.13 0.62 0.64 0.38 0.42 0.88 0.96 0.56 0.46 0.26 0.25 0.34 0.28 1.01 0.30 0.55 0.50 0.44 0.25 0.50 0.33 0.48 1.89 2.34 3.08 3.04 2.98 3.18 2.99 1.85 5.19 2.49 2.17
4.19 3.28 3.37 1.73 2.68 1.65 1.03 1.56 1.65 1.70 1.21 1.26 1.39 0.78 1.40 1.64 1.23 1.23 0.43 1.56 1.32 2.49 3.17 3.03 1.98 0.67 0.32 0.26 0.33 0.26 0.21 0.18 0.24 0.73 0.29 0.21 0.30 1.61 1.47 1.05 0.82 0.92 0.67 1.49 2.47 3.91 2.85 2.56 3.56 1.82 3.07 2.00 2.44 3.90
3.69 3.30 0.67 0.35 0.51 0.50 1.84 2.08 0.87 1.49 1.33 1.50 1.22 1.66 1.91 2.25 1.56 0.56 0.45 0.53 0.56 1.31 0.60 0.69 0.75 0.57 0.38 0.30 0.26 0.30 0.30 0.36 0.38 0.27 0.41 0.31 0.32 0.37 0.95 1.90 1.07 0.70 0.97 1.41 2.26 4.55 4.42 4.13 4.38 2.89 3.49 3.79 3.65 4.44
1.22 0.74 1.66 1.92 1.40 0.93 1.58 1.27 1.40 1.52 1.14 0.56 0.99 1.62 1.79 1.75 1.01 0.65 0.53 0.67 0.94 0.67 0.69 0.72 0.52 0.41 0.47 0.46 0.61 0.71 0.90 0.82 1.07 0.84 0.70 0.65 0.63 1.10 1.06 1.19 1.07 2.47 1.54 2.97 3.76 3.96 3.11 4.67 4.98 4.90 4.22 4.20 4.18 4.27
1.21 1.31 0.98 1.49 0.98 1.14 1.37 1.64 1.42 0.73 0.22 0.85 2.78 1.27 1.01 0.57 1.11 1.38 0.71 0.56 0.96 1.06 1.66 1.51 1.43 2.25 1.57 1.08 1.33 1.90 1.34 1.62 1.44 1.44 2.02 2.02 2.07 1.78 1.26 1.55 1.70 2.24 2.16 3.71 2.59 2.65 2.60 3.32 3.83 4.04 4.41 4.85 4.65 5.03
1.00 1.60 1.20 1.29 1.12 1.02 2.32 1.77 2.39 1.81 0.30 0.83 0.68 0.39 0.39 0.90 1.08 0.79 1.00 1.22 1.52 3.30 4.95 4.22 3.83 4.38 4.89 3.40 2.82 1.95 2.92 3.49 2.49 2.75 3.69 2.62 2.22 2.14 2.53 3.22 3.20 3.11 3.08 5.65 3.23 1.40 2.47 3.38 3.77 4.84 4.11 3.70 3.75 4.32
0.88 2.31 1.68 1.21 1.55 3.20 3.08 3.65 3.68 1.90 2.07 3.71 3.34 3.65 2.38 1.65 1.62 0.81 0.95 1.46 1.99 5.70 6.18 6.40 6.15 6.42 5.01 3.09 5.22 4.56 2.97 4.78 1.92 1.43 1.42 2.21 2.51 3.60 3.85 3.24 3.56 4.93 4.18 3.84 4.73 3.62 2.80 3.80 4.71 4.12 2.92 2.58 2.57 2.69
2.49 3.71 2.88 1.45 2.35 4.60 2.46 5.56 4.43 4.01 4.98 4.62 4.77 4.56 4.93 3.97 2.20 1.64 1.85 3.19 3.98 4.77 2.61 3.96 5.93 2.65 2.53 2.32 3.00 3.10 3.07 1.85 1.89 1.86 1.98 2.63 3.30 3.80 2.41 2.00 4.59 4.70 3.78 4.04 3.37 3.44 2.77 3.52 3.33 3.48 3.14 2.74 2.45 2.19
5.56 3.69 2.35 2.34 4.25 2.65 3.24 3.88 1.07 3.63 3.23 3.75 4.34 3.49 3.99 3.14 1.44 2.37 1.11 2.81 3.48 3.82 3.15 4.41 4.69 5.64 2.78 2.28 2.14 2.32 2.63 2.06 2.65 3.43 3.01 3.01 2.99 2.89 2.94 4.07 5.02 3.75 2.29 3.17 3.54 3.15 2.52 2.00 2.09 2.38 2.42 2.75 2.49 2.26
SL_Ratio
nan nan nan nan nan nan nan nan nan nan nan nan nan nan nan nan nan nan nan nan nan 5.0 nan nan nan nan nan nan 3.7 nan 3.7 3.7 3.9 4.4 4.3 4.5 4.6 4.6 4.9 5.0 5.0 5.0 5.0 5.1 4.6 5.1 5.4 nan nan 5.0 4.4 nan nan nan
nan nan nan nan nan nan nan nan nan nan nan nan nan nan nan nan nan nan nan nan nan nan nan nan nan nan nan nan nan nan 3.8 nan 3.8 3.7 4.0 3.8 4.4 3.8 5.0 5.0 nan 5.0 4.4 4.8 4.6 4.9 nan nan nan nan nan nan nan nan
nan nan nan nan nan nan nan nan nan nan nan nan nan nan nan nan nan nan nan nan nan 3.6 nan nan nan nan nan nan nan nan 3.5 nan 10.0 nan 3.9 3.9 4.5 4.4 4.8 4.5 4.6 nan nan 4.5 4.6 nan nan nan nan nan nan nan nan nan
nan nan nan nan nan nan nan nan nan nan nan nan nan nan nan nan nan nan nan nan nan nan 3.6 3.7 nan nan nan nan nan nan nan nan nan nan 3.8 3.8 4.3 nan 4.6 4.2 4.4 4.4 nan nan nan nan nan nan nan nan nan nan nan nan
nan nan nan nan nan nan nan nan nan nan nan nan nan nan nan nan nan nan nan nan nan nan 3.7 3.7 nan nan nan nan nan nan nan nan nan 3.7 3.8 3.8 4.3 4.0 3.8 4.0 4.4 nan nan 4.2 4.3 nan nan nan nan nan nan nan nan nan
nan nan nan nan nan nan nan nan nan nan nan nan nan nan nan nan nan nan nan nan nan nan 3.6 3.7 3.3 nan nan nan nan nan nan nan nan 3.8 3.8 3.8 nan 3.8 3.7 4.1 nan nan nan nan nan nan nan nan nan nan nan nan nan nan
nan nan nan nan nan nan nan nan nan nan nan nan nan nan nan nan nan nan nan nan nan nan 3.7 3.8 3.7 3.7 nan nan nan nan nan nan nan 3.7 3.7 3.9 3.7 3.3 3.9 4.3 nan nan nan nan nan nan nan nan nan nan nan nan nan nan
nan nan nan nan nan nan nan nan nan nan nan nan nan nan nan nan nan nan nan nan nan nan 3.7 3.7 3.8 3.7 nan 3.7 3.7 nan 3.7 3.6 3.8 nan 3.7 3.7 3.7 3.9 3.9 nan nan nan nan nan nan nan nan nan nan nan nan nan nan nan
nan nan nan nan nan nan nan nan nan nan nan nan nan nan nan nan 3.7 5.0 nan nan nan 3.6 3.7 3.7 3.7 3.8 nan 3.7 3.7 3.7 3.5 3.7 3.6 3.7 3.8 3.7 3.7 3.8 3.3 nan nan nan nan nan nan nan nan nan nan nan nan nan nan 3.3
nan nan nan nan nan nan nan nan nan nan nan nan nan 3.8 3.7 3.7 nan nan 4.0 3.6 3.7 3.7 3.7 3.7 3.6 3.7 3.9 3.7 3.7 3.7 3.7 3.7 3.8 3.7 3.5 3.7 3.9 nan nan nan nan nan nan nan 3.8 4.2 nan nan nan nan nan nan nan nan
nan nan nan nan nan nan nan nan nan nan nan 3.8 3.7 3.7 nan nan nan 3.7 3.7 3.7 3.7 3.7 3.7 3.7 3.7 3.7 3.7 3.7 3.7 3.7 3.7 3.6 4.2 4.6 3.8 4.1 4.5 nan nan nan nan nan nan nan nan nan nan nan nan 3.3 3.6 3.9 4.5 5.0
nan nan nan nan nan nan nan nan nan nan nan nan 3.8 nan 4.0 nan 3.7 3.3 3.7 3.6 3.7 3.8 3.7 3.7 3.7 3.7 3.7 nan 3.7 3.6 3.7 3.9 4.9 3.8 3.9 5.0 4.7 nan nan nan nan nan nan nan nan nan nan nan nan 4.0 4.7 5.1 5.3 5.3
nan nan nan nan nan nan nan nan nan nan nan nan 3.7 3.8 2.6 3.3 4.4 4.0 4.3 3.8 3.7 3.7 3.6 3.6 3.6 3.7 3.7 3.7 3.6 3.6 3.8 4.8 3.9 4.6 4.9 5.1 nan nan nan nan nan nan nan nan nan nan nan nan nan 5.5 5.3 5.5 5.3 5.4
nan nan nan nan nan nan nan nan nan nan nan 3.6 3.5 4.8 3.7 4.4 4.6 4.8 4.8 3.9 3.7 3.6 3.7 3.7 3.7 3.7 3.7 3.7 3.7 4.2 4.4 4.5 5.3 5.5 5.4 4.7 4.3 nan nan nan nan nan 4.8 4.4 4.0 5.1 5.4 5.7 5.9 5.8 5.9 5.9 6.1 6.0
nan nan nan nan nan nan nan nan nan nan 3.6 3.9 4.1 5.9 5.2 4.6 4.0 3.9 3.6 3.6 3.7 3.7 3.7 3.7 3.7 3.7 4.4 4.4 4.6 4.7 5.3 5.4 5.4 5.4 5.0 3.8 3.8 nan nan nan nan 5.0 5.3 5.4 5.0 5.2 5.6 5.7 5.9 5.7 5.7 5.5 5.4 5.8
nan nan 5.0 nan nan nan nan nan nan nan 4.2 4.7 4.9 5.1 4.4 4.6 4.7 3.7 3.6 3.6 3.7 3.7 3.7 3.7 4.6 4.6 5.2 4.7 5.1 5.2 5.5 5.8 5.4 4.7 4.2 3.8 3.9 3.9 3.9 3.8 3.8 4.1 4.5 4.8 4.9 5.0 5.4 5.8 5.7 5.5 5.5 5.4 5.7 5.7
nan 3.7 nan nan nan nan nan nan 3.7 4.5 4.6 4.8 5.3 3.8 4.2 4.0 4.4 4.0 3.7 3.7 3.7 3.7 4.5 4.7 5.2 5.6 5.1 5.4 5.9 5.3 5.7 5.0 4.1 4.1 4.1 3.7 4.2 4.6 4.3 3.8 5.0 5.1 4.7 4.8 5.1 5.1 5.4 5.6 5.6 5.7 5.8 5.4 5.5 5.4
3.6 nan nan nan nan nan nan 4.0 4.2 4.4 5.8 5.5 5.5 5.2 4.6 4.5 4.0 3.8 3.7 3.7 3.9 4.1 4.5 5.8 4.7 5.8 5.6 6.0 5.9 5.4 5.5 4.6 4.5 4.3 4.4 4.3 3.9 3.9 3.3 5.6 6.2 5.4 5.1 5.2 5.4 5.4 5.8 5.9 5.7 5.4 5.5 5.2 5.4 5.4
nan nan nan nan nan 4.0 4.2 4.0 4.2 5.5 5.8 5.3 5.3 4.8 4.6 4.4 4.3 4.2 3.7 3.7 4.1 4.2 4.6 5.2 5.3 6.1 6.1 6.3 5.4 4.6 4.3 4.9 4.9 4.9 4.7 4.4 4.5 4.7 5.5 6.0 6.2 6.5 6.3 6.0 5.1 5.3 5.4 5.2 5.4 5.4 5.4 5.5 5.8 5.6
nan nan nan nan nan 4.4 5.1 5.0 4.0 4.6 5.6 5.8 4.7 5.0 5.1 5.1 4.6 4.2 3.8 3.8 4.1 4.7 5.1 5.8 6.2 6.6 6.4 6.3 6.1 5.8 5.2 4.4 4.8 5.4 5.6 5.8 5.2 5.9 6.2 6.1 5.9 6.4 5.8 6.6 5.9 5.1 5.9 6.2 5.9 5.6 5.8 5.7 6.3 6.7
nan nan nan nan 4.2 5.0 4.3 5.0 5.0 4.4 5.0 5.2 5.2 5.1 5.4 5.0 5.1 5.0 4.7 4.6 4.8 5.4 5.9 6.4 5.9 5.2 6.1 5.9 5.8 5.8 6.0 6.2 6.1 5.1 5.6 6.2 6.4 6.0 6.3 6.3 6.0 6.1 6.2 6.4 6.1 6.6 6.2 6.4 5.9 5.9 6.2 6.1 6.2 6.1
nan nan 4.2 4.1 4.5 4.5 5.1 4.3 4.7 5.1 5.1 5.1 5.2 5.1 5.4 5.4 5.6 5.3 5.0 5.5 5.8 6.3 5.7 5.8 5.9 5.2 5.4 5.8 5.9 6.3 6.7 7.0 7.3 6.7 4.7 6.1 7.0 7.0 7.3 7.0 6.7 7.0 7.2 6.9 6.7 6.8 6.3 6.5 6.7 6.7 6.5 6.0 6.2 6.2
nan 4.2 4.3 4.3 5.4 5.2 5.1 4.2 5.3 5.3 5.7 5.5 5.2 5.7 5.8 5.7 5.6 5.2 6.0 5.7 5.9 6.2 6.0 5.5 5.6 5.7 6.1 6.3 6.3 6.2 6.2 6.5 7.0 7.8 7.5 8.2 8.3 7.1 7.8 7.9 7.3 7.0 7.1 7.2 6.6 6.7 6.8 3.9 6.0 6.5 6.4 6.3 6.3 6.4
nan 4.4 5.7 5.5 5.3 6.4 4.9 5.8 5.3 5.6 5.4 5.7 5.9 6.1 6.1 5.8 5.7 5.9 6.5 6.5 7.0 5.4 5.7 6.8 5.9 6.1 6.0 7.0 7.4 7.6 7.1 6.9 7.4 7.2 7.1 7.6 7.8 8.2 7.6 7.3 7.1 7.0 7.0 6.7 6.7 6.7 6.5 6.4 3.7 6.7 6.6 6.5 6.6 6.9
7.2 7.4 5.8 7.5 5.5 6.2 6.4 6.3 6.0 5.8 6.5 6.1 6.1 6.0 6.7 5.8 6.3 6.5 6.7 7.4 7.2 7.2 7.0 6.0 6.0 6.3 7.1 7.6 8.1 8.4 8.4 7.3 7.7 8.2 6.9 7.2 6.9 6.9 6.9 6.7 6.9 6.9 6.8 6.7 6.7 6.5 6.4 6.3 6.4 6.5 7.0 6.6 7.0 7.2
8.4 5.8 6.8 5.9 6.6 6.0 6.5 7.0 6.8 6.6 6.7 6.7 6.5 6.4 6.1 6.1 6.5 7.5 7.3 7.3 7.4 7.3 7.0 6.9 6.7 7.2 8.6 8.1 8.2 8.3 8.2 6.7 6.5 7.1 7.2 7.0 7.1 7.2 7.3 7.4 7.4 7.0 7.1 7.0 7.0 6.7 6.8 6.9 6.8 7.1 6.9 6.9 4.0 7.3
8.4 7.1 5.9 5.4 5.7 5.9 6.7 6.4 5.9 6.3 6.9 7.0 6.4 6.8 6.4 7.8 7.3 8.0 7.7 8.1 8.3 8.2 8.3 7.8 7.3 7.7 8.2 8.4 7.9 7.6 7.3 7.4 7.8 7.8 7.3 7.1 7.2 7.2 7.7 8.2 8.1 7.6 7.1 7.0 6.9 6.7 6.9 6.9 7.0 7.1 7.2 7.0 7.3 7.4
6.6 6.1 9.1 5.9 6.2 5.7 6.6 6.5 6.4 6.6 6.2 6.3 6.3 7.4 7.5 7.5 8.3 8.6 9.2 8.0 8.1 8.0 7.8 7.8 8.0 7.8 7.9 8.3 8.3 9.0 8.5 8.2 7.8 7.5 7.5 7.5 7.3 8.2 8.5 8.0 7.9 3.0 7.3 7.3 7.0 7.1 7.3 7.1 7.2 7.3 7.8 7.5 8.0 7.5
6.5 5.7 5.6 9.5 6.9 6.5 6.9 7.0 7.1 6.2 5.8 6.4 6.6 7.0 7.5 8.4 9.7 9.7 10.0 9.1 7.3 7.3 9.4 9.5 9.7 9.2 9.0 8.4 8.7 9.0 9.5 9.5 8.6 9.6 9.4 9.4 8.8 9.5 9.6 9.6 9.5 9.4 9.4 9.0 3.0 4.6 6.9 7.7 8.1 8.6 7.3 8.1 7.9 8.2
6.6 5.5 6.0 6.8 9.6 7.7 6.6 6.3 5.9 5.8 6.1 6.2 6.1 6.7 8.2 10.0 10.2 10.0 9.8 9.7 9.6 9.0 8.6 8.8 8.9 8.7 8.6 9.0 9.2 9.5 9.2 9.0 9.3 9.2 8.9 9.4 9.5 9.5 9.4 9.2 9.2 9.2 9.2 8.6 9.2 9.4 3.8 8.2 5.7 8.4 8.8 9.1 9.1 9.0
6.1 5.7 5.8 5.7 6.3 6.7 7.3 6.6 6.0 6.1 6.1 6.8 6.7 6.8 8.5 9.7 9.9 10.2 10.1 10.0 9.6 8.3 8.2 8.3 8.3 8.3 8.6 9.2 8.6 8.8 9.2 8.7 9.6 9.7 9.8 9.5 9.4 9.2 9.1 9.2 9.1 8.8 9.0 9.1 8.9 9.2 9.4 9.1 8.9 8.8 9.1 9.4 9.6 9.6
6.6 6.6 8.1 7.9 6.7 6.8 6.1 6.7 6.6 6.9 6.0 7.3 7.2 8.1 8.6 8.9 9.5 9.8 9.7 9.1 8.9 8.7 3.6 9.0 8.5 9.3 9.4 9.5 9.2 9.2 3.4 9.6 9.6 9.7 9.6 9.5 9.3 9.1 9.5 9.6 9.0 8.9 9.2 9.1 9.3 9.3 9.5 9.3 9.4 9.3 9.5 9.6 9.7 9.8
6.2 6.3 6.8 7.2 6.4 6.4 7.4 6.8 6.7 7.0 7.4 7.5 8.1 8.5 9.0 9.2 10.0 9.6 10.1 9.2 9.1 9.0 9.2 8.9 8.8 8.5 9.4 9.5 9.6 9.4 4.6 9.5 8.0 3.0 3.0 3.0 3.0 4.0 9.4 9.1 8.9 9.2 9.6 9.4 9.3 9.5 9.6 9.8 9.8 9.7 9.7 9.6 9.7 9.7